TimeEST,TemperatureF,Dew PointF,Humidity,Sea Level PressureIn,VisibilityMPH,Wind Direction,Wind SpeedMPH,Gust SpeedMPH,PrecipitationIn,Events,Conditions,WindDirDegrees,DateUTC
12:15 AM,26.4,14.7,61,30.06,10.0,West,15.0,23.0,N/A,,Overcast,260,2013-02-20 05:15:00
12:35 AM,25.7,16.3,68,30.08,7.0,WNW,15.0,20.7,N/A,Snow,Light Snow,290,2013-02-20 05:35:00
12:55 AM,25.5,14.4,63,30.08,10.0,West,13.8,23.0,N/A,,Overcast,270,2013-02-20 05:55:00
1:15 AM,25.5,13.3,60,30.08,10.0,West,12.7,21.9,N/A,,Overcast,280,2013-02-20 06:15:00
1:55 AM,25.3,14.0,62,30.08,10.0,West,16.1,23.0,N/A,Snow,Light Snow,260,2013-02-20 06:55:00
2:15 AM,24.8,14.5,65,30.09,7.0,West,11.5,23.0,N/A,Snow,Light Snow,280,2013-02-20 07:15:00
2:35 AM,24.8,14.7,66,30.09,10.0,West,10.4,-,N/A,,Overcast,280,2013-02-20 07:35:00
2:55 AM,24.6,15.4,68,30.09,10.0,West,9.2,18.4,N/A,Snow,Light Snow,260,2013-02-20 07:55:00
3:15 AM,24.8,14.4,65,30.09,10.0,West,12.7,17.3,N/A,Snow,Light Snow,270,2013-02-20 08:15:00
3:35 AM,25.0,13.1,61,30.09,10.0,West,10.4,13.8,N/A,,Overcast,270,2013-02-20 08:35:00
3:55 AM,24.8,14.0,64,30.09,10.0,West,11.5,-,N/A,,Overcast,280,2013-02-20 08:55:00
4:15 AM,24.3,15.1,68,30.10,5.0,West,9.2,16.1,N/A,Snow,Light Snow,270,2013-02-20 09:15:00
4:35 AM,24.6,14.4,65,30.11,10.0,West,17.3,23.0,N/A,,Overcast,270,2013-02-20 09:35:00
4:55 AM,24.6,14.2,65,30.11,10.0,West,9.2,-,N/A,,Overcast,270,2013-02-20 09:55:00
5:15 AM,24.6,13.8,64,30.11,10.0,West,13.8,18.4,N/A,,Overcast,270,2013-02-20 10:15:00
5:35 AM,24.3,13.8,64,30.12,10.0,WNW,13.8,19.6,N/A,,Overcast,290,2013-02-20 10:35:00
5:55 AM,23.9,14.7,68,30.13,10.0,WNW,6.9,-,N/A,,Overcast,300,2013-02-20 10:55:00
6:15 AM,23.7,16.3,73,30.13,7.0,West,10.4,-,N/A,Snow,Light Snow,270,2013-02-20 11:15:00
6:35 AM,23.7,14.4,67,30.13,10.0,West,9.2,16.1,N/A,,Overcast,270,2013-02-20 11:35:00
6:55 AM,23.7,14.4,67,30.14,10.0,West,13.8,18.4,N/A,,Overcast,260,2013-02-20 11:55:00
7:15 AM,23.5,14.7,69,30.14,10.0,West,10.4,-,N/A,,Overcast,270,2013-02-20 12:15:00
7:35 AM,23.7,14.7,69,30.16,10.0,West,9.2,-,N/A,,Overcast,270,2013-02-20 12:35:00
7:55 AM,23.7,14.9,69,30.16,10.0,West,6.9,-,N/A,Snow,Light Snow,270,2013-02-20 12:55:00
8:15 AM,23.7,14.2,67,30.17,10.0,West,12.7,-,N/A,,Overcast,280,2013-02-20 13:15:00
8:35 AM,23.7,14.7,69,30.17,10.0,West,10.4,-,N/A,Snow,Light Snow,260,2013-02-20 13:35:00
8:55 AM,23.4,13.1,65,30.17,10.0,West,13.8,19.6,N/A,Snow,Light Snow,270,2013-02-20 13:55:00
9:15 AM,23.5,13.8,66,30.19,10.0,West,12.7,18.4,N/A,Snow,Light Snow,270,2013-02-20 14:15:00
9:35 AM,23.0,13.8,68,30.19,7.0,West,11.5,18.4,N/A,Snow,Light Snow,280,2013-02-20 14:35:00
9:55 AM,23.0,14.0,68,30.19,5.0,West,15.0,18.4,N/A,Snow,Light Snow,270,2013-02-20 14:55:00
10:35 AM,21.2,16.7,83,30.20,0.8,WNW,9.2,-,N/A,Snow,Light Snow,290,2013-02-20 15:35:00
10:55 AM,22.6,17.2,80,30.20,2.5,WNW,9.2,-,N/A,Snow,Light Snow,290,2013-02-20 15:55:00
11:15 AM,22.1,16.2,78,30.21,4.0,West,13.8,-,N/A,Snow,Light Snow,270,2013-02-20 16:15:00
11:35 AM,22.5,16.0,76,30.22,5.0,WNW,11.5,16.1,N/A,Snow,Light Snow,290,2013-02-20 16:35:00
11:55 AM,22.3,14.9,73,30.22,7.0,WNW,13.8,18.4,N/A,Snow,Light Snow,290,2013-02-20 16:55:00
12:15 PM,23.4,15.3,71,30.22,7.0,NW,10.4,-,N/A,Snow,Light Snow,310,2013-02-20 17:15:00
12:35 PM,24.3,14.0,65,30.21,10.0,West,10.4,21.9,N/A,,Mostly Cloudy,280,2013-02-20 17:35:00
12:55 PM,24.8,15.6,68,30.21,10.0,WNW,12.7,-,N/A,Snow,Light Snow,300,2013-02-20 17:55:00
1:15 PM,24.4,13.6,64,30.20,10.0,WNW,13.8,20.7,N/A,,Overcast,290,2013-02-20 18:15:00
1:35 PM,25.2,13.1,60,30.20,10.0,WNW,15.0,18.4,N/A,,Overcast,290,2013-02-20 18:35:00
1:55 PM,25.2,13.1,60,30.21,10.0,West,15.0,23.0,N/A,,Overcast,270,2013-02-20 18:55:00
2:15 PM,25.5,12.7,58,30.22,10.0,West,15.0,19.6,N/A,,Mostly Cloudy,280,2013-02-20 19:15:00
2:35 PM,25.0,12.2,58,30.21,10.0,WNW,16.1,-,N/A,,Mostly Cloudy,290,2013-02-20 19:35:00
2:55 PM,27.1,12.4,54,30.21,10.0,NW,12.7,17.3,N/A,,Mostly Cloudy,310,2013-02-20 19:55:00
3:15 PM,26.4,12.0,55,30.21,10.0,WNW,11.5,21.9,N/A,,Mostly Cloudy,290,2013-02-20 20:15:00
3:35 PM,26.1,11.5,54,30.22,10.0,NW,8.1,23.0,N/A,,Scattered Clouds,320,2013-02-20 20:35:00
3:55 PM,26.1,10.9,53,30.22,10.0,West,15.0,18.4,N/A,,Scattered Clouds,280,2013-02-20 20:55:00
4:15 PM,26.8,11.8,53,30.23,10.0,NNW,8.1,-,N/A,,Scattered Clouds,330,2013-02-20 21:15:00
4:35 PM,25.9,11.1,54,30.24,10.0,NNW,10.4,17.3,N/A,,Mostly Cloudy,330,2013-02-20 21:35:00
4:55 PM,25.0,10.8,55,30.24,10.0,NW,9.2,-,N/A,,Overcast,320,2013-02-20 21:55:00
5:15 PM,24.4,10.6,56,30.25,10.0,NNW,9.2,17.3,N/A,,Overcast,330,2013-02-20 22:15:00
5:35 PM,23.5,10.9,59,30.26,10.0,NNW,8.1,-,N/A,,Overcast,340,2013-02-20 22:35:00
5:55 PM,23.0,10.6,59,30.26,10.0,NNW,6.9,-,N/A,,Overcast,330,2013-02-20 22:55:00
6:15 PM,22.6,10.4,59,30.26,10.0,WNW,4.6,-,N/A,,Overcast,300,2013-02-20 23:15:00
6:55 PM,22.6,11.1,61,30.27,10.0,NW,4.6,-,N/A,,Overcast,320,2013-02-20 23:55:00
7:15 PM,22.6,11.1,61,30.27,10.0,WNW,10.4,-,N/A,,Overcast,300,2013-02-21 00:15:00
7:35 PM,22.6,11.3,62,30.28,10.0,NW,5.8,-,N/A,,Overcast,310,2013-02-21 00:35:00
7:55 PM,22.5,10.2,59,30.29,10.0,WNW,8.1,-,N/A,,Overcast,300,2013-02-21 00:55:00
8:35 PM,22.1,10.8,62,30.28,10.0,WNW,5.8,-,N/A,,Overcast,290,2013-02-21 01:35:00
8:55 PM,22.1,10.9,62,30.28,10.0,WNW,5.8,-,N/A,,Overcast,290,2013-02-21 01:55:00
9:15 PM,21.9,11.5,64,30.29,10.0,NW,6.9,-,N/A,,Overcast,320,2013-02-21 02:15:00
9:35 PM,21.6,11.1,64,30.27,10.0,NW,4.6,-,N/A,,Overcast,310,2013-02-21 02:35:00
9:55 PM,21.7,11.3,64,30.27,10.0,NW,6.9,-,N/A,,Overcast,310,2013-02-21 02:55:00
10:35 PM,21.6,11.1,64,30.28,10.0,NW,3.5,-,N/A,,Overcast,310,2013-02-21 03:35:00
10:55 PM,21.2,10.6,64,30.27,10.0,Calm,Calm,-,N/A,,Overcast,0,2013-02-21 03:55:00
11:15 PM,20.5,10.8,66,30.27,10.0,WNW,4.6,-,N/A,,Scattered Clouds,290,2013-02-21 04:15:00
11:35 PM,19.0,10.8,70,30.27,10.0,WSW,3.5,-,N/A,,Scattered Clouds,250,2013-02-21 04:35:00
11:55 PM,18.7,10.9,72,30.27,10.0,West,3.5,-,N/A,,Mostly Cloudy,260,2013-02-21 04:55:00